Theta_e
354 355 355 354 354 353 352 353 353 351 350 351 350 350 349 346 344 344 344 346 348 350 350 350 350 351 352 352 354 356 358 358 356 354 354 355 355 357 356 354 353 352
354 354 354 355 355 353 352 352 351 350 349 349 350 349 348 346 345 345 344 346 346 348 351 350 350 351 352 354 355 357 358 358 357 356 355 354 355 356 356 355 353 352
355 354 355 355 354 354 352 352 350 349 348 348 348 348 347 346 346 345 345 345 346 348 350 350 351 350 352 354 355 357 358 359 360 359 356 354 355 357 356 354 353 353
355 355 354 354 353 353 352 352 350 349 348 348 348 347 347 346 345 345 345 345 346 347 347 349 350 350 352 355 356 358 358 359 359 358 357 356 357 357 356 354 354 353
355 355 355 353 352 351 351 351 350 349 348 348 347 347 346 345 344 345 346 346 346 346 347 347 349 349 352 354 356 359 359 358 357 356 356 356 357 357 356 354 353 354
354 355 355 353 351 351 350 350 349 349 349 347 347 347 346 345 344 345 345 347 346 346 346 346 348 351 352 354 356 359 359 358 356 355 355 353 354 357 358 356 355 354
353 354 354 353 352 350 350 350 349 349 348 348 347 347 345 344 345 345 345 346 347 346 347 346 348 352 354 355 357 358 359 358 357 355 353 353 354 355 356 357 357 355
353 352 353 353 352 351 350 349 349 348 349 348 347 346 346 345 345 345 346 346 347 347 348 348 349 351 353 355 357 357 357 357 358 356 354 354 356 355 356 357 358 356
355 353 352 351 352 351 350 348 348 347 348 348 347 346 346 345 345 346 346 346 347 347 349 350 351 352 354 355 356 355 355 356 358 357 355 356 358 358 357 358 357 356
356 355 352 350 350 351 350 349 348 347 347 348 347 346 346 345 346 347 348 348 347 348 350 352 351 352 354 355 356 355 353 355 357 357 356 356 357 357 357 357 355 356
353 353 352 351 350 349 350 349 348 347 347 347 347 347 346 346 346 348 349 349 349 349 351 353 353 353 353 355 354 354 354 354 356 357 357 357 357 357 357 356 355 355
354 352 351 351 350 349 348 348 348 348 348 347 348 348 347 347 347 348 349 350 350 352 353 354 354 354 354 354 354 353 353 354 355 357 359 359 358 358 356 354 355 356
357 355 353 351 352 351 348 348 347 347 348 347 347 349 347 347 347 348 349 350 350 353 354 353 353 354 355 354 355 354 354 353 355 356 358 358 356 356 355 355 358 359
359 358 356 353 353 351 349 351 349 346 348 348 347 347 347 347 347 346 348 349 350 352 354 354 353 354 355 355 354 356 355 354 354 354 356 356 355 354 353 356 360 361
358 359 358 356 355 353 350 352 353 349 347 346 347 347 347 347 347 346 346 347 349 350 353 354 354 353 355 355 355 356 356 355 354 354 356 356 355 355 355 355 357 358
357 357 357 357 357 357 355 354 353 352 350 347 346 346 347 347 347 347 346 345 347 349 351 353 354 353 353 353 353 354 355 355 354 354 355 355 355 356 354 351 353 356
356 356 357 356 355 355 357 357 356 354 353 351 348 347 347 347 347 347 348 345 346 348 350 354 355 354 352 351 351 352 353 354 356 357 355 354 354 355 353 351 354 357
355 356 357 356 354 355 357 359 359 357 356 355 353 351 349 347 347 347 348 347 347 346 348 353 355 353 352 349 349 350 350 354 357 357 355 353 354 356 356 353 354 358
354 355 355 354 355 356 357 358 358 357 358 355 354 353 352 351 350 349 349 348 348 347 347 349 351 352 352 350 349 349 349 350 353 352 353 355 354 354 354 353 355 358
354 355 354 354 355 356 356 357 356 357 357 355 354 353 353 351 350 350 351 350 350 350 349 348 350 350 349 348 349 349 349 349 349 350 354 354 353 351 353 354 356 358
353 353 353 354 355 355 355 355 355 356 354 352 351 352 353 351 349 349 350 351 352 351 350 352 353 351 348 350 350 350 350 350 349 352 354 353 352 352 354 354 355 356
351 352 352 351 352 355 354 353 354 354 352 351 352 353 354 353 351 350 349 350 353 353 350 353 355 354 352 353 352 352 352 351 352 354 355 352 351 352 353 353 353 354
347 348 349 349 350 352 354 353 353 353 352 352 352 352 353 352 352 353 352 351 352 353 351 352 354 355 354 354 355 354 352 352 353 354 353 352 352 351 350 350 350 351
343 344 346 348 348 350 351 353 353 352 352 352 350 350 351 351 352 353 353 353 353 351 351 352 353 354 353 354 355 352 352 354 355 353 351 351 350 347 346 345 345 346
341 342 344 345 347 348 349 350 351 350 350 350 350 349 349 350 351 352 353 354 352 351 351 351 352 352 352 352 352 350 351 354 354 352 350 349 347 343 341 340 339 341
338 339 341 343 346 348 347 348 349 349 349 349 349 348 349 349 349 350 351 352 351 350 350 349 349 350 350 350 351 350 351 353 354 352 349 347 344 341 338 336 336 338
Wind_Speed
16 16 17 17 18 18 18 18 17 17 17 17 17 17 16 15 16 16 16 17 17 16 14 13 12 11 10 9 9 9 8 8 8 8 7 8 9 8 7 8 8 9
15 16 16 16 16 17 18 18 18 18 18 17 16 17 17 15 15 15 14 16 16 15 14 14 14 13 11 10 10 9 9 9 9 8 8 8 8 8 9 8 9 9
16 16 16 16 16 16 17 17 18 18 18 17 16 16 16 15 15 16 14 14 14 14 15 15 14 14 13 12 11 9 9 9 8 8 9 8 8 9 10 9 8 7
17 16 16 17 16 17 17 17 18 18 17 18 17 16 16 16 17 18 17 16 14 13 14 15 14 13 13 12 11 10 10 9 9 10 10 9 8 9 9 9 8 6
18 18 17 17 17 17 17 17 18 18 18 18 19 17 17 17 17 17 18 17 17 15 14 13 13 13 12 12 12 11 11 9 9 10 11 10 10 8 8 9 8 7
18 19 18 18 18 18 18 18 18 18 18 18 18 18 18 17 15 16 17 17 17 17 16 14 13 13 12 12 12 12 11 10 9 10 10 11 12 11 9 9 8 8
17 19 19 19 18 18 19 19 18 18 18 18 18 18 19 19 17 16 16 17 17 17 16 16 15 14 13 12 12 13 13 12 12 13 12 12 12 13 11 10 8 7
17 18 19 19 19 19 19 19 19 19 19 19 19 19 18 18 19 18 16 16 17 17 17 16 15 15 14 12 12 14 14 12 11 12 13 11 11 12 11 9 8 8
16 16 17 19 20 19 19 20 19 19 19 19 19 19 19 18 18 18 18 17 16 16 16 16 15 14 14 14 14 15 15 14 12 12 11 11 10 11 10 9 8 8
17 16 17 20 20 20 20 20 20 19 19 20 19 18 18 19 19 18 19 20 19 17 16 15 16 16 15 15 16 16 15 14 14 14 12 11 10 10 9 9 8 6
22 20 19 20 20 21 21 20 20 20 19 20 20 19 18 18 19 18 18 19 19 18 17 15 15 15 15 16 16 15 15 14 13 13 12 11 10 10 9 9 9 7
21 23 23 21 20 20 21 21 21 20 20 20 20 20 20 18 18 18 18 18 19 18 17 16 15 15 15 15 15 14 14 14 12 11 11 10 10 10 10 11 10 8
16 20 23 22 20 19 18 19 22 22 21 21 20 19 20 19 18 18 18 18 18 18 17 16 16 16 16 15 15 14 13 12 11 10 10 10 10 10 10 10 9 6
14 14 16 17 19 20 19 18 20 23 22 21 21 19 20 19 18 18 19 19 18 17 17 16 15 15 16 16 15 14 13 12 11 11 10 9 9 9 10 10 8 5
15 13 10 11 16 21 22 20 19 19 21 22 21 20 19 20 19 18 18 18 18 17 17 17 16 16 15 15 14 14 14 13 12 11 10 9 10 9 8 8 5 1
18 15 8 9 16 19 21 22 20 18 19 20 22 21 19 18 19 18 18 17 17 18 18 17 16 16 15 15 15 15 14 13 12 11 10 10 8 7 9 9 5 1
18 17 12 13 19 20 20 21 21 20 18 17 18 21 21 19 17 17 17 18 17 17 18 17 17 17 15 15 16 16 14 12 10 9 9 8 7 5 7 8 6 4
16 17 17 17 20 21 18 19 21 21 19 17 14 14 17 19 18 18 17 18 18 17 18 18 18 17 17 17 17 16 15 13 9 8 7 7 9 9 8 8 8 6
14 17 20 20 20 20 17 19 24 25 22 20 16 11 10 11 12 15 18 19 19 18 17 18 18 18 18 18 17 16 16 15 12 9 4 3 6 10 9 7 7 5
14 16 19 19 19 20 19 19 24 26 22 19 16 12 11 11 11 12 14 16 18 20 18 13 14 18 20 19 18 18 19 18 14 8 4 4 5 5 5 6 6 3
15 16 16 17 17 18 18 17 18 19 17 14 13 13 16 19 18 15 13 13 15 18 18 12 11 16 19 19 19 18 18 16 11 6 5 6 6 4 2 2 2 1
15 15 15 15 15 14 14 16 16 14 14 17 19 18 17 17 18 19 18 16 15 14 13 10 12 15 17 18 18 17 16 13 8 8 8 7 7 6 5 5 5 4
16 14 14 13 13 12 11 14 17 15 15 20 22 19 17 16 16 17 19 20 17 13 10 10 14 17 18 18 17 16 14 10 8 9 9 8 8 7 6 5 5 5
17 15 13 11 10 11 11 14 18 20 20 22 22 20 20 20 18 17 19 21 19 14 11 12 15 18 19 18 17 16 14 10 8 10 11 11 10 7 5 5 6 5
14 13 9 7 8 9 12 14 17 20 19 18 18 19 22 24 22 19 18 19 18 13 11 13 16 18 18 18 17 17 14 11 10 12 14 13 11 10 8 7 9 9
13 13 11 6 3 4 8 9 10 14 16 15 14 14 17 23 25 20 14 12 12 11 11 12 16 18 17 16 16 16 15 14 12 14 16 14 12 11 10 10 12 14
Wind_Direction
200 200 200 201 201 199 194 195 199 200 198 195 198 203 206 206 205 202 203 205 204 204 213 217 217 224 230 234 239 240 246 255 259 263 265 265 269 272 276 280 281 283
203 203 202 203 203 203 198 196 199 201 202 204 201 200 205 208 209 211 209 204 202 203 210 215 219 222 225 231 235 237 244 250 255 261 266 269 269 273 277 278 277 277
205 207 205 205 205 205 203 201 202 203 202 206 208 201 202 206 209 214 216 211 209 209 209 211 217 223 225 228 231 235 241 244 248 255 262 267 271 274 274 273 276 278
205 210 210 210 208 206 206 204 205 207 204 205 208 206 204 205 207 210 213 215 217 218 217 213 213 219 223 226 230 233 237 242 246 252 260 265 267 276 278 274 278 284
206 209 213 215 213 209 208 207 206 208 208 206 206 208 212 212 206 203 205 211 217 222 226 222 216 221 226 227 228 231 233 239 243 249 258 263 265 275 284 286 291 296
208 207 212 217 216 212 211 211 209 208 209 209 207 208 213 218 213 206 205 206 210 217 222 225 223 223 226 225 224 227 230 233 237 243 252 260 264 265 272 288 298 300
216 208 210 216 217 216 214 214 212 210 211 210 209 209 211 215 215 215 213 206 206 212 216 221 222 220 222 223 222 225 229 232 238 245 251 261 265 261 264 280 291 296
228 214 211 215 218 218 216 216 214 211 212 212 211 213 212 211 212 216 221 214 209 211 213 218 221 218 217 218 220 227 229 230 236 246 252 256 258 258 264 273 279 283
238 228 220 216 218 222 220 219 216 212 212 214 215 213 211 213 213 215 220 221 220 219 216 217 221 217 214 217 222 227 229 227 229 239 246 246 248 255 260 262 264 273
242 239 235 226 220 221 224 224 222 217 213 216 219 216 212 214 217 217 218 219 222 226 224 220 220 217 215 218 222 227 229 226 225 231 237 237 238 244 248 252 255 257
242 236 239 241 230 222 224 227 228 225 217 216 220 221 218 215 215 219 220 217 218 224 227 225 223 221 220 220 222 226 227 225 226 232 234 232 235 241 247 252 254 258
248 238 235 243 245 234 227 224 227 231 226 219 218 221 223 220 215 218 222 219 217 221 226 227 225 225 226 227 228 230 231 228 229 230 229 233 241 247 253 256 256 260
254 247 236 241 254 253 247 237 228 228 231 227 222 220 223 225 220 218 222 224 222 223 225 228 228 226 229 232 233 236 240 238 234 233 232 238 246 249 255 258 249 238
257 260 249 250 255 250 255 263 244 230 230 230 227 224 224 228 227 222 220 221 225 228 227 229 232 230 230 234 235 238 244 245 243 243 238 239 251 254 247 238 225 209
262 268 268 272 265 244 243 260 263 248 239 234 230 230 227 228 230 231 227 221 219 227 231 230 233 234 232 233 235 235 238 242 245 247 244 248 257 259 253 243 233 211
264 267 270 271 269 259 251 257 265 266 259 245 235 233 232 232 231 231 235 231 219 221 231 229 227 231 232 233 234 232 234 240 245 244 244 250 261 289 318 320 325 6
267 267 267 258 260 265 267 266 266 268 270 264 249 237 231 232 234 232 237 241 230 220 223 227 227 228 230 235 236 232 231 235 239 240 245 259 274 293 303 292 271 236
265 262 259 254 252 256 263 268 268 266 266 270 272 258 238 231 232 231 232 242 244 233 220 219 225 226 225 232 238 236 229 226 230 238 246 266 269 256 250 253 249 238
257 254 253 249 245 245 248 256 259 257 256 260 267 273 268 258 253 244 235 236 245 248 235 222 219 221 223 229 236 239 233 229 234 237 221 206 237 243 248 250 239 225
262 257 254 247 243 242 241 247 254 254 255 265 274 271 258 260 276 280 264 248 244 250 252 240 220 219 225 228 232 235 232 230 235 234 198 162 185 212 236 236 226 223
276 272 262 249 244 243 237 237 251 256 253 263 277 267 244 238 243 252 263 269 265 256 253 246 219 215 219 220 223 224 221 222 222 196 155 148 159 167 168 169 166 162
301 290 277 260 250 245 239 238 247 254 247 243 247 247 242 240 239 237 240 253 269 267 252 228 205 204 204 204 208 209 208 209 197 166 149 133 132 141 142 141 138 119
329 312 297 283 265 252 244 241 240 235 227 230 235 236 235 233 233 236 235 236 244 251 242 218 205 200 196 197 201 202 198 192 173 157 148 134 132 137 136 131 126 121
344 331 310 296 279 257 242 239 238 233 226 224 226 227 230 228 225 228 228 229 233 232 221 216 211 201 196 196 198 196 185 169 157 149 137 131 132 129 117 101 93 106
357 356 334 298 284 263 248 249 253 248 240 229 218 214 220 222 221 222 224 227 228 215 201 207 206 197 195 194 192 189 176 161 157 147 137 135 131 117 106 91 79 79
9 18 27 21 336 264 246 257 265 255 243 230 212 202 211 219 219 216 211 207 198 176 173 195 200 193 190 187 188 187 177 169 165 148 138 138 130 113 100 89 82 81